Snowfall_Accumulation
0.3 0.3 0.3 0.4 0.3 0.1 0.1 0.1 0.0 0.0 0.0 0.0 0.0 0.0 0.0 0.0 0.0 0.0 0.0 0.0 0.0 0.0
0.5 0.7 0.4 0.2 0.2 0.3 0.1 0.0 0.0 0.0 0.0 0.0 0.0 0.0 0.0 0.0 0.0 0.0 0.0 0.0 0.0 0.0
1.3 1.3 1.3 0.4 0.3 0.2 0.2 0.0 0.0 0.0 0.0 0.0 0.0 0.0 0.0 0.0 0.0 0.0 0.0 0.0 0.0 0.0
2.7 3.2 1.6 6.3 0.7 0.4 0.0 0.1 0.1 0.0 0.0 0.0 0.0 0.0 0.0 0.0 0.0 0.0 0.0 0.0 0.0 0.0
5.0 3.7 4.1 2.2 5.0 0.8 0.5 0.0 0.2 0.1 0.0 0.0 0.0 0.0 0.0 0.0 0.0 0.0 0.0 0.0 0.0 0.0
6.0 4.9 4.5 4.2 2.5 6.2 5.5 0.8 1.4 0.1 0.0 0.1 0.0 0.0 0.0 0.0 0.0 0.0 0.0 0.0 0.0 0.0
5.7 6.1 4.6 4.3 4.0 4.7 7.6 2.3 2.1 0.4 0.1 0.1 0.0 0.0 0.0 0.0 0.0 0.0 0.0 0.0 0.0 0.0
0.8 4.0 4.9 3.8 4.0 3.7 3.7 7.8 5.2 3.4 2.4 0.1 0.1 0.1 0.0 0.2 0.4 0.0 0.0 1.8 1.0 2.5
0.0 0.4 2.1 3.3 3.8 3.5 3.5 3.4 6.8 5.2 4.8 4.5 1.6 0.4 0.2 0.4 0.4 2.0 2.8 2.3 1.8 2.1
0.0 0.1 0.1 0.8 2.1 3.7 4.3 3.6 3.3 5.6 5.0 5.0 1.7 0.5 0.1 2.4 1.2 3.7 3.3 3.2 2.6 1.3
0.3 0.2 0.0 0.2 0.7 2.4 4.3 6.4 3.4 3.4 4.8 10.5 6.3 2.4 2.5 4.5 2.9 3.3 2.7 2.2 0.3 0.4
1.0 1.6 1.8 2.6 3.5 7.4 2.6 5.4 6.7 6.1 6.1 9.3 9.0 4.5 1.6 1.5 1.3 1.2 0.9 0.6 0.1 0.1
0.8 2.0 3.1 2.4 3.6 5.6 4.9 6.8 6.9 8.1 5.6 6.6 6.1 4.7 1.3 1.4 1.7 1.6 0.9 0.4 0.1 0.0
1.2 2.8 3.1 3.1 4.8 4.0 2.9 5.1 7.2 6.1 5.5 5.5 4.9 4.8 3.0 2.1 2.7 2.6 2.1 1.3 0.7 0.1